Location: Fort Wayne
(41.1310°N, 85.1290°W)
Time: 03:47:17
(UTC-04:00)

Daily predictions for brighter satellites

Satellite Brightness Start Highest point End
(mag) Time Altitude Azimuth Time Altitude Azimuth Time Altitude Azimuth
Cosmos 1812 3.4 00:00:21 10° NNW 00:03:35 53° NW 00:03:35 53° NW
Cosmos 1000 Rocket 4.5 00:01:20 10° N 00:07:34 68° E 00:08:34 59° SE
Cosmos 2082 Rocket 2.7 00:02:33 10° NW 00:08:01 48° WSW 00:08:58 44° SW
USA 234 3.2 00:01:30 10° NE 00:08:04 86° NW 00:14:36 10° SW
Meteor 2-4 Rocket 4.4 00:04:41 10° N 00:09:43 37° ENE 00:09:56 37° E
Cosmos 2239 Rocket 4.5 00:12:07 59° SE 00:12:52 64° E 00:19:07 10° NNE
Meteor 1-11 Rocket 3.7 00:17:27 69° ESE 00:17:47 70° E 00:23:33 10° NNE
Cosmos 1302 Rocket 4.0 00:21:05 69° ENE 00:21:05 69° ENE 00:25:59 10° NNE
Gbstr 26 Del rocket 3.7 00:22:49 10° NW 00:27:04 52° N 00:27:04 52° N
Cosmos 1536 4.2 00:40:02 36° NNE 00:40:02 36° NNE 00:42:28 10° N
Cosmos 1400 Rocket 4.0 00:40:46 41° N 00:40:46 41° N 00:43:32 10° N
H-2A R/B 4.3 00:36:10 10° NNE 00:38:33 25° ENE 00:38:33 25° ENE
Cosmos 1892 Rocket 4.5 00:40:29 10° N 00:43:38 44° NNE 00:43:38 44° NNE
ISS -0.3 00:42:54 10° NW 00:45:05 16° NNW 00:47:17 10° NNE
Cosmos 1821 Rocket 4.0 00:46:40 66° SW 00:47:28 75° W 00:53:43 10° N
Cosmos 1605 Rocket 4.0 00:47:50 66° ESE 00:48:03 66° E 00:54:25 10° NNE
Terra 3.7 00:47:55 20° W 00:48:07 20° W 00:51:35 10° NW
Cosmos 2285 Rocket 3.8 00:51:55 77° SE 00:52:06 78° ESE 00:58:29 10° NNE
Meteor 1-23 Rocket 4.1 00:46:35 10° N 00:51:57 80° NE 00:51:57 80° NE
Meteor 1-19 Rocket 4.3 00:46:45 10° NNW 00:52:34 67° W 00:52:42 67° WSW
Cosmos 2369 Rocket 2.3 00:57:32 65° ENE 00:57:32 65° ENE 01:02:28 10° NNE
Cosmos 1503 Rocket 4.1 00:52:16 10° NNW 00:56:59 72° N 00:56:59 72° N
MOS 1-B Rocket 4.5 00:58:33 47° E 00:59:17 50° ENE 01:05:45 10° N
Iridium 4 Rocket 4.0 00:54:40 10° N 01:00:26 59° W 01:00:45 58° WSW
Cosmos 1934 Rocket 3.9 01:01:47 66° WSW 01:02:12 68° W 01:08:15 10° N
CZ-4B R/B 4.3 01:04:48 15° N 01:04:48 15° N 01:05:32 10° N
Cosmos 2123 Rocket 3.9 00:58:12 10° N 01:04:29 79° W 01:04:44 78° SW
Meteor 2-16 Rocket 4.5 01:08:06 67° WSW 01:08:29 69° W 01:14:35 10° N
ALOS 2 3.6 01:10:19 45° N 01:10:19 45° N 01:13:25 10° N
Lacrosse 5 2.3 01:09:49 59° N 01:09:49 59° N 01:14:07 10° NE
CZ-2C R/B 3.8 01:07:03 10° NNE 01:10:38 31° ENE 01:10:38 31° ENE
Cosmos 1455 Rocket 4.2 01:14:19 40° N 01:14:19 40° N 01:17:10 10° N
NOSS 3-1 (A) 3.9 01:11:02 10° NW 01:18:41 81° WSW 01:19:56 66° S
Meteor 1-5 Rocket 4.3 01:23:44 68° NNW 01:23:44 68° NNW 01:28:31 10° N
Cosmos 1943 Rocket 2.6 01:37:33 53° ENE 01:37:33 53° ENE 01:42:03 10° NNE
Cosmos 1818 4.0 01:38:10 55° NE 01:38:10 55° NE 01:42:28 10° NE
ATLAS 2AS CENTAUR R/B 3.3 01:32:02 10° NNW 01:40:06 62° NE 01:42:50 41° ESE
Meteor 1-12 Rocket 4.3 01:48:02 74° NNW 01:48:02 74° NNW 01:53:13 10° N
Lacrosse 5 rocket 3.5 01:48:44 21° NNW 01:48:44 21° NNW 01:51:03 10° NNE
NOSS 3-1 (C) 4.5 01:42:01 10° NW 01:49:14 44° WSW 01:49:18 44° WSW
GP-B 4.2 01:52:30 10° N 01:55:30 42° N 01:55:30 42° N
Helios 1A Rocket 4.4 01:55:39 10° N 01:58:12 35° N 01:58:12 35° N
Cosmos 2100 Rocket 4.1 02:11:13 65° W 02:11:26 65° W 02:17:47 10° N
H-2A R/B 4.5 02:11:59 10° NNW 02:15:11 24° WNW 02:15:11 24° WNW
ISS 0.0 02:20:45 10° NNW 02:22:31 14° N 02:24:18 10° NE
Cosmos 2061 Rocket 4.2 02:23:45 57° W 02:24:05 57° W 02:30:26 10° N
BREEZE-M DEB (TANK) 4.4 02:07:10 10° WNW 02:24:36 61° NNE 02:28:18 15° E
Meteor 1-21 4.3 02:22:39 10° N 02:28:11 72° ENE 02:28:11 72° ENE
Cosmos 2233 Rocket 4.5 02:27:50 45° ESE 02:28:23 46° E 02:34:11 10° NNE
Cosmos 1459 Rocket 4.4 02:30:29 48° W 02:30:39 48° WNW 02:36:32 10° N
Cosmos 2016 Rocket 3.9 02:31:20 67° W 02:31:25 67° W 02:37:31 10° N
Cosmos 1241 Rocket 4.4 02:26:17 10° NW 02:32:36 72° WSW 02:32:36 72° WSW
Cosmos 1802 Rocket 4.3 02:36:32 51° W 02:36:48 51° WNW 02:42:54 10° N
Cosmos 1758 Rocket 4.4 02:35:52 10° N 02:39:14 49° N 02:39:14 49° N
Cosmos 2369 Rocket 4.2 02:39:18 15° WNW 02:41:28 18° NW 02:45:18 10° N
ATLAS CENTAUR R/B 4.1 02:43:06 14° E 02:43:06 14° E 02:45:06 10° ENE
SeaSat 1 2.6 02:44:11 70° NE 02:44:11 70° NE 02:48:52 10° NNW
CZ-2C R/B 4.0 02:45:58 37° WNW 02:45:58 37° WNW 02:49:25 10° NNW
Meteor 2-9 Rocket 4.3 02:47:36 65° ESE 02:47:52 66° E 02:53:38 10° NNE
Cosmos 1340 4.4 02:45:39 10° N 02:47:50 32° N 02:47:50 32° N
Cosmos 2219 3.3 02:45:33 10° NNW 02:50:27 61° WNW 02:50:27 61° WNW
Cosmos 1864 Rocket 4.4 02:51:15 70° WSW 02:51:40 72° W 02:57:55 10° N
CZ-2C R/B 3.8 02:47:29 10° N 02:51:59 30° WNW 02:52:09 30° WNW
Lacrosse 5 4.2 02:49:05 10° WNW 02:52:49 20° NNW 02:56:34 10° NNE
Cosmos 2227 Rocket 3.4 02:50:04 10° N 02:55:20 37° ENE 02:58:36 20° ESE
Cosmos 1570 Rocket 4.0 02:58:55 84° N 02:58:55 84° N 03:04:08 10° NNE
Cosmos 1725 Rocket 4.2 03:06:36 52° W 03:07:05 53° WNW 03:13:08 10° N
Cosmos 1666 4.2 03:10:35 34° NNW 03:10:35 34° NNW 03:12:53 10° N
NOSS 3-3 (A) 4.1 03:08:19 55° WSW 03:09:31 67° NW 03:16:15 10° NNE
NOSS 3-3 (C) 4.1 03:08:25 56° WSW 03:09:37 67° NW 03:16:20 10° NNE
Cosmos 1816 Rocket 4.4 03:05:20 10° NNW 03:11:33 67° W 03:12:09 64° SW
Cosmos 2278 4.0 03:12:02 52° SE 03:12:31 54° ESE 03:18:01 10° NNE
Cosmos 1656 Rocket 4.3 03:12:36 42° WNW 03:13:14 44° WNW 03:18:36 10° NNE
Cosmos 2369 4.1 03:13:13 46° SE 03:13:46 48° ESE 03:19:12 10° NE
Cosmos 2228 3.5 03:15:46 55° NNW 03:15:46 55° NNW 03:19:14 10° N
Cosmos 2297 Rocket 3.4 03:11:34 10° N 03:16:52 39° ENE 03:21:33 13° SE
Tsikada Rocket 4.4 03:12:07 10° NNW 03:18:05 47° W 03:18:25 46° W
Resurs 1-4 Rocket 4.3 03:16:33 10° NE 03:19:55 17° E 03:22:30 12° SE
Cosmos 1943 Rocket 4.0 03:19:03 18° WNW 03:20:46 20° NW 03:24:51 10° N
AQUA 4.2 03:16:30 10° NNE 03:21:09 52° E 03:21:22 51° ESE
NPP 3.7 03:18:21 10° NNE 03:23:45 69° ESE 03:24:27 62° SSE
ADEOS 4.5 03:19:53 10° NNE 03:24:46 39° E 03:25:56 34° SE
Cosmos 405 Rocket 3.8 03:22:32 10° N 03:26:24 40° ENE 03:26:39 39° E
ARIANE 5 R/B 4.2 03:23:42 10° NE 03:27:58 26° E 03:29:52 21° SE
ATLAS 2AS CENTAUR R/B 3.8 03:23:48 10° NW 03:30:12 32° WSW 03:30:12 32° WSW
SL-16 R/B 4.0 03:26:07 10° SE 03:31:33 34° ENE 03:37:01 10° N
Milstar 3 Cent rocket 4.2 03:36:29 15° SE 03:36:29 15° SE 03:38:16 10° ESE
BREEZE-M DEB (TANK) 3.4 03:38:17 56° SW 03:39:28 82° SSE 03:42:40 10° ENE
IRAS Rocket 4.2 03:39:36 10° NNE 03:45:15 82° ESE 03:46:41 53° S
Cosmos 1812 Rocket 3.5 03:45:32 78° W 03:45:33 78° W 03:50:03 10° N
SL-08 R/B 3.2 03:48:23 68° WSW 03:48:29 68° W 03:53:08 10° NNW
Cosmos 44 4.4 03:45:37 10° NW 03:48:52 31° WNW 03:48:52 31° WNW
ERS-2 2.4 03:47:40 10° NNE 03:51:13 65° E 03:51:13 65° E
CBERS-1 3.9 03:48:10 10° N 03:53:19 75° WNW 03:54:16 58° SW
IRS-1D 4.4 03:49:27 10° NNE 03:54:07 40° E 03:56:09 28° SSE
Cosmos 2298 Rocket 3.9 03:48:56 10° NNW 03:54:15 82° WSW 03:55:45 48° S
Cosmos 1814 Rocket 4.1 03:53:05 49° S 03:54:25 70° ESE 03:59:46 10° NNE
BREEZE-M DEB (TANK) 3.7 03:49:35 10° WNW 03:52:42 28° WNW 03:52:42 28° WNW
ISS -1.4 03:56:45 10° NW 03:59:43 31° NNE 04:02:41 10° E
Cosmos 972 Rocket 4.3 03:55:26 10° NNW 04:00:10 46° WSW 04:00:11 46° WSW
Cosmos 1656 3.8 04:03:16 42° S 04:05:13 71° ESE 04:10:52 10° NNE
Cosmos 1707 2.6 04:03:15 10° N 04:07:12 77° W 04:07:17 77° WSW
Cosmos 1464 Rocket 4.1 04:08:20 40° SW 04:10:26 60° W 04:16:43 10° N
UNK 4.3 04:09:14 18° SSE 04:12:35 56° ENE 04:17:11 10° N
CZ-2D R/B 2.6 04:12:04 10° NNE 04:17:27 57° E 04:20:34 25° S
Cosmos 858 Rocket 4.5 04:13:17 10° NNW 04:18:27 62° WSW 04:20:23 37° S
IRS-1C 4.3 04:13:15 10° N 04:18:28 56° WNW 04:20:10 39° SW
Okean 3 Rocket 3.5 04:15:21 10° NNW 04:19:43 64° W 04:20:36 51° SSW
Cosmos 990 Rocket 4.1 04:14:43 10° NNW 04:20:00 78° ENE 04:24:59 11° SSE
Cosmos 468 Rocket 4.1 04:19:13 41° WSW 04:20:45 58° WNW 04:25:52 10° NNE
ATLAS CENTAUR R/B 1.8 04:19:27 45° SW 04:21:00 77° WNW 04:26:02 10° NNE
NOSS 7 (E) 4.4 04:21:02 64° SSE 04:21:19 68° ESE 04:24:43 10° NE
NOSS 2-1 (D) 3.9 04:24:02 40° W 04:24:57 49° NW 04:29:19 10° NNE
Meteor 2-12 Rocket 4.4 04:22:19 29° S 04:25:36 89° E 04:31:41 10° N
Cosmos 1092 Rocket 4.3 04:20:00 10° N 04:26:16 69° E 04:32:34 10° SSE
NOSS 2-1 (C) 3.9 04:25:23 40° W 04:26:20 49° NW 04:30:42 10° NNE
Cosmos 1697 Rocket 2.7 04:24:08 33° SSW 04:26:46 79° ESE 04:32:27 10° NNE
Cosmos 2082 4.1 04:23:03 10° NW 04:28:18 41° WSW 04:29:42 35° SW
Cosmos 2150 Rocket 4.4 04:27:33 10° NNW 04:32:26 41° WSW 04:33:43 35° SW
Cosmos 1980 Rocket 2.7 04:31:21 23° S 04:34:48 55° ESE 04:40:19 10° NNE
Meteor 2-5 Rocket 4.4 04:33:47 10° NNW 04:39:07 37° W 04:41:11 28° SW
Cosmos 2227 Rocket 2.9 04:34:19 10° NW 04:39:15 31° WSW 04:40:20 29° SW
NOSS 2-1 (E) 4.3 04:40:01 28° W 04:41:30 39° NW 04:45:52 10° NNE
GEOS 3 Rocket 3.5 04:37:49 10° SSE 04:43:02 81° SW 04:48:14 10° NW
Cosmos 1898 Rocket 4.3 04:38:28 10° NW 04:43:13 33° W 04:44:32 29° SW
Cosmos 2322 Rocket 4.0 04:41:38 10° SSE 04:46:11 26° ESE 04:50:47 10° NE
Abrixas 3.9 04:44:48 10° NW 04:47:43 39° NNE 04:50:38 10° E
Cosmos 1125 Rocket 4.1 04:44:22 10° NNW 04:49:32 59° ENE 04:54:39 10° SSE
USA 161 3.4 04:52:44 18° WNW 04:52:44 18° WNW 04:54:01 10° NW
BREEZE-M R/B 4.5 04:46:58 10° WNW 04:52:40 43° SW 04:59:25 10° SSE
Cosmos 841 Rocket 3.5 04:49:56 26° SSW 04:52:55 71° WNW 04:58:12 10° NNE
Cosmos 1076 Rocket 3.6 04:49:11 10° NNW 04:53:27 58° W 04:55:56 23° SSW
NOSS 3-4 (A) 3.8 04:47:06 10° NW 04:53:59 59° WSW 05:01:14 10° SSE
NOSS 3-4 (C) 3.8 04:47:12 10° NW 04:54:07 59° WSW 05:01:25 10° SSE
Cosmos 1937 Rocket 4.1 04:51:28 10° NW 04:56:08 35° W 04:58:31 23° SSW
MTI 3.7 04:55:25 18° SSE 04:57:45 87° WSW 05:01:03 10° NNW
Cosmos 1743 Rocket 3.8 04:54:34 10° N 04:58:54 68° E 05:03:13 10° SSE
Cosmos 1763 Rocket 3.7 04:56:53 25° SW 04:59:49 54° WNW 05:04:56 10° N
Resurs 1-4 Rocket 2.2 04:54:57 10° N 05:00:08 59° WNW 05:03:34 21° SW
CZ-4B R/B 4.5 04:56:52 10° NNE 05:00:24 30° E 05:03:45 10° SSE
Cosmos 2297 Rocket 3.0 04:55:55 10° NW 05:00:44 29° WSW 05:03:14 21° SW
Okean O Rocket 2.2 04:57:58 10° NNE 05:02:18 56° E 05:06:37 10° S
Cosmos 1437 3.1 05:00:57 10° N 05:04:17 68° E 05:07:36 10° SSE
MOZ.5/SAFIR/RUBIN 5/SL-8 4.4 05:00:05 10° SSE 05:04:42 58° ENE 05:09:18 10° N
ARIANE 5 R/B 3.2 05:02:27 10° N 05:07:09 38° WNW 05:10:12 20° SW
Cosmos 1766 4.2 05:05:45 24° WSW 05:07:13 31° WNW 05:10:46 10° NNW
Cosmos 2279 Rocket 4.4 05:02:10 10° S 05:08:20 65° E 05:14:32 10° NNE
Cosmos 1378 4.2 05:11:08 10° NNW 05:14:24 28° W 05:15:54 21° SW
SL-16 R/B 3.0 05:10:04 13° SSW 05:15:05 39° W 05:20:48 10° NNW
Cosmos 2360 4.3 05:10:13 15° SSW 05:15:05 83° ESE 05:20:50 10° NNE
SL-16 R/B 3.1 05:13:16 10° S 05:18:38 46° ESE 05:24:03 10° NE
Cosmos-2242 3.3 05:16:25 18° SSW 05:19:25 49° W 05:23:36 10° N
UNKNOWN OBJECT B 3.4 05:16:32 10° N 05:20:14 41° WNW 05:22:43 18° SW
Cosmos 1408 Rocket 4.4 05:17:11 10° NNW 05:21:02 30° W 05:23:51 16° SW
Cosmos 332 Rocket 3.9 05:17:16 11° S 05:21:55 74° ESE 05:26:45 10° NNE
Cosmos 1766 Rocket 4.4 05:19:47 10° NNW 05:23:40 31° W 05:26:48 14° SSW
Cosmos 1655 Rocket 4.0 05:19:08 10° N 05:25:34 81° W 05:31:56 10° S
Cosmos 1758 3.9 05:24:54 16° SW 05:27:43 39° WNW 05:31:30 10° N
Thor Agena Rocket 3.7 05:22:48 10° SSE 05:27:50 77° ENE 05:32:53 10° N
Cosmos 540 Rocket 3.5 05:24:51 10° SSW 05:29:56 86° WNW 05:35:08 10° NNE
Cosmos 1953 3.2 05:30:11 15° SW 05:33:01 33° WNW 05:36:44 10° N
PAYLOAD B 4.3 05:28:26 10° NNE 05:34:05 86° WNW 05:39:41 10° SSW
GPS 2-04 Rocket1 3.4 05:32:32 14° WSW 05:35:28 34° S 05:38:56 10° ESE
Cosmos 2263 Rocket 3.9 05:30:19 10° N 05:35:30 37° ENE 05:40:38 10° SE
ISS -2.7 05:33:10 10° WNW 05:36:10 33° SW 05:39:08 10° SSE
CZ-4B R/B 3.2 05:33:04 10° NNE 05:38:39 82° WNW 05:44:05 10° SSW
Cosmos 1805 4.2 05:36:32 13° SW 05:39:27 30° WNW 05:42:57 10° NNW
Cosmos 371 Rocket 3.4 05:37:21 10° SSW 05:42:09 78° ESE 05:46:59 10° NNE
Cosmos 1842 Rocket 3.8 05:40:45 10° SSW 05:45:08 54° W 05:49:33 10° N
Okean-O 3.4 05:41:16 10° NNE 05:45:38 54° E 05:49:58 10° S
Cosmos 1733 3.1 05:43:36 10° S 05:47:23 84° W 05:51:12 10° N
Cosmos 2227 4.5 05:42:48 10° NW 05:48:19 48° WSW 05:53:47 10° S
Cosmos 2058 4.0 05:46:30 10° N 05:50:38 50° E 05:54:43 10° SSE
DELTA 2 R/B (2) 3.5 05:49:33 10° WSW 05:51:40 42° S 05:53:21 10° ESE
SL-24 R/B - RUBIN 2 4.4 05:46:34 10° SW 05:52:15 85° WNW 05:58:42 10° NNE
Cosmos 2026 Rocket 4.4 05:47:31 10° NNW 05:53:29 45° W 05:59:22 10° SSW
CZ-2D R/B 3.7 05:53:10 10° NNW 05:57:04 20° WNW 06:00:56 10° WSW
ATLAS CENTAUR R/B 4.0 05:58:06 10° WNW 06:00:56 15° NW 06:03:45 10° N
BREEZE-M DEB (TANK) 4.1 05:48:41 10° SW 06:02:26 58° SE 06:06:21 10° ENE
Aureole 1 Rocket 4.3 06:00:14 10° SW 06:05:59 61° WNW 06:13:28 10° NNE
